FLOCK 4BE 31

导读 | 星芒AI

FLOCK 4BE 31 是由美国公司 Planet Labs 运营的一颗小型地球观测卫星,属于其“Flock”系列。该卫星主要用于高分辨率光学成像,支持全球范围内的土地利用监测、环境研究和灾害评估等应用。它运行在低地球轨道,具备较高的重访频率和图像获取能力,能够提供频繁更新的地球表面图像数据,服务于政府、科研机构及商业客户。

基本信息
目录编号:
60488
目录名称:
FLOCK 4BE 31
国际标识:
2024-149W
轨道中心:
EARTH
卫星名称:
FLOCK 4BE 31
卫星全名:
FLOCK 4BE 31
卫星状态:
在轨 (已飞行432 天)
发射日期:
2024-08-16 UTC
国别 :
美国 (US)
星等 :
--
轨道信息
数据来源 国际轨道数据
星历时间: 2025-10-22T11:57:32+0800
10小时前
查看轨道信息
半长轴: 6844.025km
偏心率: 0.0003808
轨道倾角: 97.403°
近地点辐角 52.594°
升交点赤经 13.531°
平近点角 307.565°
近地点: 463.283km
远地点: 468.497km
周期: 93.913分钟
每日圈数: 15.333294
详细信息
使用方式:
暂无
2D轨道图
3D轨道图
轨道高度分析图
轨道倾角分析图
轨道综合分析图
查看轨道综合分析图